TimeNZDT,TemperatureF,Dew PointF,Humidity,Sea Level PressureIn,VisibilityMPH,Wind Direction,Wind SpeedMPH,Gust SpeedMPH,PrecipitationIn,Events,Conditions,WindDirDegrees,DateUTC
12:00 AM,59.0,51.8,77,29.98,6.2,South,6.9,-,N/A,,Unknown,190,2013-12-22 11:00:00
12:30 AM,59.0,51.8,77,29.98,6.2,SSW,6.9,-,N/A,,Unknown,200,2013-12-22 11:30:00
1:00 AM,59.0,50.0,72,29.98,6.2,SSW,5.8,-,N/A,,Unknown,210,2013-12-22 12:00:00
1:30 AM,59.0,51.8,77,29.98,6.2,SSW,9.2,-,N/A,,Unknown,200,2013-12-22 12:30:00
2:00 AM,60.8,51.8,72,30.01,6.2,SSW,13.8,-,N/A,,Unknown,210,2013-12-22 13:00:00
2:30 AM,60.8,51.8,72,30.01,6.2,SSW,12.7,-,N/A,,Unknown,200,2013-12-22 13:30:00
3:00 AM,60.8,51.8,72,29.98,6.2,SSW,10.4,-,N/A,,Unknown,200,2013-12-22 14:00:00
3:30 AM,59.0,51.8,77,29.98,6.2,SSW,9.2,-,N/A,,Unknown,200,2013-12-22 14:30:00
4:00 AM,59.0,51.8,77,29.98,6.2,SSW,8.1,-,N/A,,Unknown,200,2013-12-22 15:00:00
4:30 AM,59.0,51.8,77,29.98,6.2,SSW,8.1,-,N/A,,Unknown,210,2013-12-22 15:30:00
5:00 AM,59.0,50.0,72,29.98,6.2,SSW,10.4,-,N/A,,Unknown,210,2013-12-22 16:00:00
5:30 AM,59.0,50.0,72,30.01,6.2,SSW,8.1,-,N/A,,Unknown,200,2013-12-22 16:30:00
6:00 AM,57.2,51.8,82,30.01,6.2,SSW,6.9,-,N/A,,Unknown,200,2013-12-22 17:00:00
6:30 AM,57.2,51.8,82,30.01,6.2,SSW,6.9,-,N/A,,Unknown,200,2013-12-22 17:30:00
7:00 AM,59.0,51.8,77,30.01,6.2,SSW,6.9,-,N/A,,Unknown,210,2013-12-22 18:00:00
7:30 AM,59.0,51.8,77,30.04,6.2,SSE,5.8,-,N/A,,Unknown,160,2013-12-22 18:30:00
8:00 AM,60.8,51.8,72,30.04,6.2,SSE,4.6,-,N/A,,Unknown,160,2013-12-22 19:00:00
8:30 AM,60.8,53.6,77,30.04,6.2,SSE,6.9,-,N/A,,Unknown,160,2013-12-22 19:30:00
9:00 AM,62.6,53.6,72,30.04,6.2,SSE,8.1,-,N/A,,Unknown,160,2013-12-22 20:00:00
9:30 AM,64.4,53.6,68,30.04,6.2,South,6.9,-,N/A,,Unknown,180,2013-12-22 20:30:00
10:00 AM,66.2,51.8,60,30.04,6.2,SSW,8.1,-,N/A,,Unknown,200,2013-12-22 21:00:00
10:30 AM,66.2,51.8,60,30.04,6.2,SSW,8.1,-,N/A,,Unknown,210,2013-12-22 21:30:00
11:00 AM,66.2,51.8,60,30.04,6.2,SW,8.1,-,N/A,,Unknown,220,2013-12-22 22:00:00
11:30 AM,66.2,51.8,60,30.04,6.2,SW,11.5,-,N/A,,Partly Cloudy,230,2013-12-22 22:30:00
12:00 PM,68.0,53.6,60,30.06,6.2,SW,13.8,-,N/A,,Scattered Clouds,230,2013-12-22 23:00:00
12:30 PM,68.0,53.6,60,30.06,6.2,SW,12.7,-,N/A,,Partly Cloudy,230,2013-12-22 23:30:00
1:00 PM,69.8,51.8,53,30.06,6.2,SW,13.8,-,N/A,,Partly Cloudy,230,2013-12-23 00:00:00
1:30 PM,68.0,51.8,56,30.06,6.2,SW,13.8,-,N/A,,Mostly Cloudy,220,2013-12-23 00:30:00
2:00 PM,68.0,53.6,60,30.06,6.2,SW,13.8,-,N/A,,Scattered Clouds,230,2013-12-23 01:00:00
2:30 PM,69.8,51.8,53,30.04,6.2,SW,15.0,-,N/A,,Mostly Cloudy,220,2013-12-23 01:30:00
3:00 PM,68.0,51.8,56,30.04,6.2,SW,15.0,-,N/A,,Unknown,230,2013-12-23 02:00:00
3:30 PM,69.8,50.0,49,30.04,6.2,SW,12.7,-,N/A,,Unknown,230,2013-12-23 02:30:00
4:00 PM,68.0,50.0,52,30.04,6.2,SW,12.7,-,N/A,,Unknown,230,2013-12-23 03:00:00
4:30 PM,69.8,53.6,56,30.04,6.2,SW,12.7,-,N/A,,Unknown,230,2013-12-23 03:30:00
5:00 PM,68.0,51.8,56,30.01,6.2,SW,12.7,-,N/A,,Unknown,220,2013-12-23 04:00:00
5:30 PM,69.8,53.6,56,30.01,6.2,SW,12.7,-,N/A,,Unknown,230,2013-12-23 04:30:00
6:00 PM,66.2,51.8,60,30.01,6.2,SW,15.0,-,N/A,,Partly Cloudy,220,2013-12-23 05:00:00
6:30 PM,66.2,51.8,60,30.04,6.2,SW,13.8,-,N/A,,Unknown,230,2013-12-23 05:30:00
7:00 PM,64.4,50.0,59,30.04,6.2,SW,12.7,-,N/A,,Unknown,230,2013-12-23 06:00:00
7:30 PM,64.4,53.6,68,30.04,6.2,SW,12.7,-,N/A,,Partly Cloudy,230,2013-12-23 06:30:00
8:00 PM,62.6,51.8,68,30.04,6.2,SW,13.8,-,N/A,,Partly Cloudy,220,2013-12-23 07:00:00
8:30 PM,62.6,50.0,63,30.06,6.2,SW,13.8,-,N/A,,Partly Cloudy,230,2013-12-23 07:30:00
9:00 PM,60.8,50.0,68,30.06,6.2,SW,10.4,-,N/A,,Partly Cloudy,230,2013-12-23 08:00:00
9:30 PM,60.8,50.0,68,30.06,6.2,SW,10.4,-,N/A,,Unknown,220,2013-12-23 08:30:00
10:00 PM,60.8,50.0,68,30.06,6.2,SW,9.2,-,N/A,,Unknown,220,2013-12-23 09:00:00
10:30 PM,60.8,50.0,68,30.09,6.2,SW,9.2,-,N/A,,Partly Cloudy,220,2013-12-23 09:30:00
11:00 PM,60.8,50.0,68,30.09,6.2,SW,9.2,-,N/A,,Scattered Clouds,220,2013-12-23 10:00:00
11:30 PM,60.8,50.0,68,30.09,6.2,SSW,8.1,-,N/A,,Unknown,210,2013-12-23 10:30:00